Location: Les Coudrans
(46.1056°N, 1.1158°W)
Time: 16:35:31
(UTC+00:00)

DMSP B5D2-2 - Visible Passes

Search period start: 22 June 2021 00:00
Search period end: 02 July 2021 00:00
Orbit: 790 x 805 km, 98.3° (Epoch: 21 June)

Date Brightness Start Highest point End Pass type
(mag) Time Alt. Az. Time Alt. Az. Time Alt. Az.
22 Jun 7.0 20:57:26 10° NNW 21:00:53 18° WNW 21:04:20 10° W visible
23 Jun 6.4 20:29:30 10° N 20:33:57 29° WNW 20:38:21 10° WSW visible
25 Jun 7.3 21:16:13 10° NNW 21:18:33 13° NW 21:20:52 10° W visible
26 Jun 6.9 20:47:51 10° NNW 20:51:41 21° WNW 20:55:29 10° WSW visible
29 Jun 7.1 21:06:26 10° NNW 21:09:21 15° WNW 21:12:16 10° W visible
30 Jun 6.8 20:38:18 10° N 20:42:27 24° WNW 20:46:34 10° WSW visible
